Content
SEND FEEDBACK

Daily
Averages
Monthly
Summary
United States of America

EL PASO, TEXAS


Home > North America > United States > Texas
Elevation: 1194 meters     Latitude: 31 48N     Longitude: 106 24W

WEATHER
 
SELECT A DAY
Number of Records: 171,958;   Date Range: 1/1/95 - 7/29/14
 
SHARE

PRINT THIS DATA

[ ← Previous Day ]
WEATHER ALMANAC - 8 DECEMBER, 2013
[ Next Day → ]
[ °F ]   °C
Weather ElementAverageHighLow
Temperature5.8 °C13.3 °C (2:51 pm)-2.2 °C (6:51 am)
Dewpoint-4.1 °C-1.1 °C (8:51 am)-7.8 °C (11:51 am)
Humidity55.8 %92 % (2:51 am)25 % (11:51 am)
Barometer1013.5 hPa1015.6 hPa (7:51 am)1011.9 hPa (1:51 pm)
Wind Speed9.7 km/h25.9 km/h (1:51 pm)
Wind Gust37 km/h (1:51 pm)
Weather ElementAverage
Visibility16.1 km
Wind DirectionSSE (170.9 °)

Weather ElementTotal
Precipitation---
Heating Degree Days12.8 (Base 18.3)
Averaged from 23 records on 8 December, 2013
WEATHER CONDITIONS BREAKOUT
WIND DIRECTION BREAKOUT
WEATHER BY HOUR - 8 DECEMBER, 2013
[ °F ]   °C
Local TimeTemperatureDewpointHumidityBarometerVisibilityWind DirectionWind SpeedGust SpeedPrecipitationEventsConditions
1:51 AM0 °C-1.7 °C88 %1013.5 hPa16.1 kmSouth (170°)9.3 km/hPartly Cloudy
2:51 AM-0.6 °C-1.7 °C92 %1013.2 hPa16.1 kmSSE (160°)13 km/hPartly Cloudy
3:51 AM-0.6 °C-1.7 °C92 %1012.9 hPa16.1 kmSSE (150°)9.3 km/hScattered Clouds
4:51 AM-0.6 °C-2.2 °C89 %1013.5 hPa16.1 kmEast (100°)11.1 km/hPartly Cloudy
5:51 AM-0.6 °C-2.8 °C85 %1014.2 hPa16.1 kmSouth (180°)9.3 km/hPartly Cloudy
6:51 AM-2.2 °C-3.9 °C88 %1014.9 hPa16.1 kmESE (120°)11.1 km/hPartly Cloudy
7:51 AM0 °C-2.8 °C82 %1015.6 hPa16.1 kmCalmPartly Cloudy
8:51 AM2.8 °C-1.1 °C76 %1015.2 hPa16.1 kmSSE (160°)7.4 km/hClear
9:51 AM6.1 °C-3.3 °C51 %1015.6 hPa16.1 kmSE (130°)7.4 km/hPartly Cloudy
10:51 AM10 °C-6.1 °C32 %1014.9 hPa16.1 kmVariable11.1 km/h35.2 km/hPartly Cloudy
11:51 AM11.7 °C-7.8 °C25 %1013.9 hPa16.1 kmWNW (290°)11.1 km/h35.2 km/hPartly Cloudy
12:51 PM11.7 °C-7.2 °C26 %1012.9 hPa16.1 kmWNW (300°)13 km/hPartly Cloudy
1:51 PM12.8 °C-6.7 °C25 %1011.9 hPa16.1 kmWest (270°)25.9 km/h37 km/hPartly Cloudy
2:51 PM13.3 °C-6.7 °C25 %1011.9 hPa16.1 kmVariable7.4 km/hPartly Cloudy
3:51 PM13.3 °C-6.7 °C25 %1011.9 hPa16.1 kmWNW (290°)18.5 km/hPartly Cloudy
4:51 PM11.7 °C-5.6 °C30 %1012.2 hPa16.1 kmWNW (300°)9.3 km/hPartly Cloudy
5:51 PM10 °C-4.4 °C36 %1012.5 hPa16.1 kmWNW (300°)9.3 km/hClear
6:51 PM8.9 °C-3.9 °C41 %1013.5 hPa16.1 kmCalmClear
7:51 PM8.9 °C-3.9 °C41 %1013.5 hPa16.1 kmNNW (340°)5.6 km/hPartly Cloudy
8:51 PM5.6 °C-3.3 °C53 %1013.5 hPa16.1 kmSSE (160°)9.3 km/hClear
9:51 PM4.4 °C-3.3 °C58 %1013.2 hPa16.1 kmESE (120°)7.4 km/hClear
10:51 PM5 °C-2.8 °C57 %1013.2 hPa16.1 kmNW (320°)5.6 km/hClear
11:51 PM1.7 °C-3.9 °C67 %1013.9 hPa16.1 kmENE (70°)9.3 km/hClear
Hourly data recorded from KELP, located 0 kilometers away from El Paso, Texas







STORIES FROM OUR PARTNERS